Location: Home
(42.5358°N, 72.7383°W)
Time: 11:16:57
(UTC-05:00)

A-11 Canister half - Pass Details

Date: 30 November 2021
Orbit: 1524 x 1684 km, 47.3° (Epoch: 19 January)

Event Time Altitude Azimuth Distance (km) Brightness Sun altitude
Rises 23:00:56 0° 170° (S) 4,910 - -67.7°
Reaches altitude 10° 23:06:40 10° 144° (SE) 3,938 - -68.2°
Maximum altitude 23:10:33 13° 121° (ESE) 3,716 - -68.4°
Drops below altitude 10° 23:14:25 10° 98° (E) 3,943 - -68.6°
Sets 23:20:06 0° 73° (ENE) 4,921 - -68.9°
